Weather History for Ibiza, Spain

Change the Weather History Date:

Wednesday, October 17, 2012

  Actual Average Record
Temperature  
Mean Temperature 68 °F -  
Max Temperature 77 °F 68 °F 80 °F (2013)
Min Temperature 60 °F 56 °F 55 °F (2010)
Cooling Degree Days 4    
Growing Degree Days 18 (Base 50)    
Moisture  
Dew Point 63 °F    
Average Humidity 78    
Maximum Humidity 100    
Minimum Humidity 53    
Precipitation  
Precipitation 0.00 in 0.08 in - ()
Sea Level Pressure  
Sea Level Pressure 29.92 in    
Wind  
Wind Speed 6 mph ()    
Max Wind Speed 10 mph    
Max Gust Speed -    
Visibility 6.8 miles    
Events      
Averages and records for this station are not official NWS values.
T = Trace of Precipitation, MM = Missing Value Source: Averaged Metar Reports

Daily Weather History Graph

Daily Weather History Graph

Search for Another Location

Airport:

Trip Planner

Search our weather history database for the weather conditions in past years. The results will help you decide how hot, cold, wet, or windy it might be!

Date:

Astronomy

Oct. 17, 2012 Rise Set
Actual Time 8:06 AM CEST 7:12 PM CEST
Civil Twilight 7:39 AM CEST 7:39 PM CEST
Nautical Twilight 7:08 AM CEST 8:10 PM CEST
Astronomical Twilight 6:37 AM CEST 8:41 PM CEST
Moon 10:20 AM CEST (10/17) 8:36 PM CEST (10/17)
Length of Visible Light 12h 00m
Length of Day
11h 06m
Waxing Crescent, 5% of the Moon is Illuminated
Oct 17
Waxing Crescent
Oct 22
First Quarter
Oct 29
Full
Nov 7
Last Quarter
Nov 13
New

Hourly Weather History & Observations

Time (CEST) Temp. Dew Point Humidity Pressure Visibility Wind Dir Wind Speed Gust Speed Precip Events Conditions
12:00 AM 68.0 °F 55.4 °F 64% 30.01 in 6.2 mi South 10.4 mph - N/A   Partly Cloudy
12:30 AM 68.0 °F 55.4 °F 64% 30.01 in 6.2 mi SSW 9.2 mph - N/A   Partly Cloudy
1:00 AM 68.0 °F 55.4 °F 64% 30.01 in 6.2 mi South 8.1 mph - N/A   Partly Cloudy
1:30 AM 68.0 °F 55.4 °F 64% 29.98 in 6.2 mi South 9.2 mph - N/A   Partly Cloudy
2:00 AM 67 °F 56 °F 58% 29.99 in 9 mi South 9.2 mph - -   Scattered Clouds
2:00 AM 68.0 °F 55.4 °F 64% 29.98 in 6.2 mi South 8.1 mph - N/A   Partly Cloudy
2:30 AM 68.0 °F 55.4 °F 64% 29.98 in 6.2 mi South 9.2 mph - N/A   Partly Cloudy
3:00 AM 68.0 °F 57.2 °F 68% 29.98 in 6.2 mi South 9.2 mph - N/A   Partly Cloudy
3:30 AM 68.0 °F 57.2 °F 68% 29.98 in 6.2 mi South 8.1 mph - N/A   Partly Cloudy
4:00 AM 66.2 °F 57.2 °F 73% 29.95 in 6.2 mi South 5.8 mph - N/A   Partly Cloudy
5:00 AM 66.2 °F 60.8 °F 83% 29.95 in 6.2 mi South 3.5 mph - N/A   Partly Cloudy
5:30 AM 66.2 °F 60.8 °F 83% 29.95 in 6.2 mi South 4.6 mph - N/A   Partly Cloudy
6:00 AM 66.2 °F 60.8 °F 83% 29.95 in 6.2 mi SSE 5.8 mph - N/A   Partly Cloudy
6:30 AM 60.8 °F 59.0 °F 94% 29.95 in 6.2 mi Calm Calm - N/A   Partly Cloudy
7:00 AM 62.6 °F 60.8 °F 94% 29.95 in 6.2 mi Variable 2.3 mph - N/A   Partly Cloudy
7:30 AM 62.6 °F 60.8 °F 94% 29.95 in 6.2 mi Variable 1.2 mph - N/A   Partly Cloudy
8:00 AM 61 °F 57 °F 84% 29.95 in 9 mi Calm Calm - -   Scattered Clouds
8:00 AM 60.8 °F 59.0 °F 94% 29.95 in 6.2 mi Calm Calm - N/A   Partly Cloudy
8:30 AM 62.6 °F 60.8 °F 94% 29.95 in 6.2 mi Calm Calm - N/A   Partly Cloudy
9:00 AM 64.4 °F 62.6 °F 94% 29.95 in 6.2 mi Calm Calm - N/A   Partly Cloudy
9:30 AM 69.8 °F 64.4 °F 83% 29.95 in 6.2 mi Calm Calm - N/A   Partly Cloudy
10:00 AM 73.4 °F 66.2 °F 78% 29.95 in 6.2 mi South 4.6 mph - N/A   Partly Cloudy
10:30 AM 73.4 °F 64.4 °F 73% 29.95 in 6.2 mi Variable 3.5 mph - N/A   Partly Cloudy
11:00 AM 73.4 °F 64.4 °F 73% 29.95 in 6.2 mi ESE 4.6 mph - N/A   Partly Cloudy
12:00 PM 75.2 °F 64.4 °F 69% 29.95 in 6.2 mi SE 6.9 mph - N/A   Partly Cloudy
12:30 PM 75.2 °F 64.4 °F 69% 29.95 in - East 8.1 mph - N/A   Clear
1:00 PM 75.2 °F 64.4 °F 69% 29.95 in - East 9.2 mph - N/A   Clear
1:30 PM 75.2 °F 64.4 °F 69% 29.92 in - ESE 9.2 mph - N/A   Clear
2:00 PM 77 °F 63 °F 53% 29.92 in 12 mi East 10.4 mph - -   Clear
2:00 PM 75.2 °F 66.2 °F 73% 29.92 in - East 9.2 mph - N/A   Clear
2:30 PM 75.2 °F 66.2 °F 73% 29.89 in - East 9.2 mph - N/A   Clear
3:00 PM 75.2 °F 66.2 °F 73% 29.89 in - East 8.1 mph - N/A   Clear
3:30 PM 75.2 °F 66.2 °F 73% 29.89 in - East 8.1 mph - N/A   Clear
4:00 PM 75.2 °F 66.2 °F 73% 29.89 in - East 8.1 mph - N/A   Clear
4:30 PM 75.2 °F 66.2 °F 73% 29.86 in - ESE 8.1 mph - N/A   Clear
5:00 PM 75.2 °F 66.2 °F 73% 29.86 in - East 5.8 mph - N/A   Clear
5:30 PM 75.2 °F 66.2 °F 73% 29.86 in - East 5.8 mph - N/A   Clear
6:00 PM 75.2 °F 64.4 °F 69% 29.83 in - ESE 4.6 mph - N/A   Clear
6:30 PM 73.4 °F 66.2 °F 78% 29.83 in - East 5.8 mph - N/A   Clear
7:00 PM 71.6 °F 66.2 °F 83% 29.83 in - ESE 5.8 mph - N/A   Clear
7:30 PM 71.6 °F 68.0 °F 88% 29.83 in - ESE 3.5 mph - N/A   Clear
8:00 PM 71 °F 65 °F 76% 29.85 in 12 mi ESE 2.3 mph - -   Clear
8:00 PM 71.6 °F 68.0 °F 88% 29.83 in - Variable 2.3 mph - N/A   Clear
8:30 PM 71.6 °F 68.0 °F 88% 29.83 in - Variable 1.2 mph - N/A   Clear
9:00 PM 69.8 °F 68.0 °F 94% 29.83 in - Calm Calm - N/A   Clear
9:30 PM 68.0 °F 66.2 °F 94% 29.86 in - Calm Calm - N/A   Clear
10:00 PM 68.0 °F 66.2 °F 94% 29.86 in 5.6 mi Variable 2.3 mph - N/A   Unknown
10:30 PM 66.2 °F 64.4 °F 94% 29.83 in - NNW 4.6 mph - N/A   Clear
11:00 PM 66.2 °F 64.4 °F 94% 29.83 in - Variable 1.2 mph - N/A   Clear
11:30 PM 64.4 °F 64.4 °F 100% 29.83 in - NNW 4.6 mph - N/A   Clear